Theta_e
276 277 276 275 274 273 272 272 272 272 273 273 274 274 275 275 275 274 274 275 275 276 276 276 276 276 276 275 275 275 275 275 275 275 275 275 275 275 275 275 275 275 275 275 275 275 275 275 275 275 275 275 275 275 274 274 274 274 274 274 274 274 274 274 273 274 274 275 274 274 274 274 274 274 273 273 273 273 273 273 273 274 274 275 277
276 275 273 272 271 271 271 271 272 273 273 274 274 274 273 272 271 271 271 272 272 273 274 274 274 275 275 275 275 275 275 275 275 275 275 275 275 275 275 275 275 275 275 275 275 275 275 275 275 275 275 274 274 274 274 274 274 274 274 274 274 274 274 274 273 273 274 274 274 274 274 274 273 273 273 273 273 272 272 272 273 273 274 274 276
273 272 271 270 270 270 271 271 272 273 273 273 272 271 269 269 268 268 268 269 269 270 271 271 271 272 272 273 274 274 274 274 274 274 274 274 274 274 275 275 275 275 275 275 275 274 274 274 274 274 274 274 274 274 274 274 274 274 273 273 273 273 273 273 273 273 273 274 274 274 273 273 273 273 273 272 272 272 272 272 272 272 273 274 275
271 270 269 270 270 271 271 272 272 271 271 270 269 268 267 266 266 266 266 267 267 267 268 268 269 269 270 271 272 273 274 274 274 274 274 274 274 274 274 274 275 274 274 274 274 274 274 274 274 274 274 274 274 274 274 274 274 273 273 273 273 273 273 273 273 273 273 273 273 273 273 273 273 273 272 272 272 272 272 272 272 272 273 274 275
269 269 269 270 270 271 271 271 270 269 268 268 267 266 265 265 265 265 265 266 266 266 267 267 267 268 268 269 270 271 273 273 273 273 273 273 274 274 274 274 274 274 274 274 274 274 274 274 274 274 274 274 273 273 273 273 273 273 273 273 273 273 273 273 273 273 273 273 273 273 273 273 273 273 272 272 272 272 272 272 272 272 273 274 275
269 269 269 270 270 269 269 268 267 267 266 266 265 264 264 264 264 265 265 265 265 265 266 266 266 267 267 268 269 270 272 273 273 273 273 273 273 274 274 274 274 274 274 274 274 274 274 274 273 273 273 273 273 273 273 273 273 273 273 273 273 273 273 273 273 273 272 272 273 273 273 272 272 272 272 272 272 272 272 272 272 273 273 274 275
268 269 269 268 268 267 266 266 266 265 265 264 263 263 263 263 263 263 264 264 264 264 264 264 265 266 267 268 269 270 271 272 272 273 273 273 273 273 273 274 274 274 274 274 274 273 273 273 273 273 273 273 273 273 273 273 273 273 273 273 273 273 273 273 273 272 272 272 272 272 272 272 272 272 272 272 272 272 272 271 272 272 273 273 274
268 268 267 266 265 265 265 265 264 264 263 263 262 263 262 262 262 262 262 262 263 263 263 264 265 266 268 269 269 269 269 270 271 272 272 272 273 273 273 273 273 273 273 273 273 273 273 273 273 273 273 272 272 272 272 273 273 273 273 273 273 272 272 272 272 272 272 272 272 272 272 272 272 272 272 272 271 271 272 271 271 272 272 273 274
267 265 265 264 264 264 264 264 263 262 262 262 262 262 261 261 261 261 261 261 262 262 263 264 265 266 266 267 267 267 268 270 271 272 272 272 273 273 273 273 273 273 273 273 273 273 273 272 272 272 272 272 272 272 272 272 272 272 272 272 272 272 272 272 272 272 272 272 272 272 272 272 272 272 272 271 271 271 271 271 271 272 272 273 275
265 264 263 263 263 263 263 262 261 261 261 261 261 261 260 260 260 260 261 261 261 262 262 263 263 264 264 265 266 267 268 269 270 271 272 273 273 273 273 273 273 273 273 273 272 272 272 272 272 272 272 272 272 272 272 272 272 272 272 272 272 272 272 272 271 271 271 271 271 272 272 272 272 272 271 272 271 271 271 271 271 271 272 273 275
263 263 262 262 262 262 261 261 260 260 260 260 260 259 259 259 260 260 260 260 261 261 262 262 263 263 264 265 266 267 268 269 271 272 273 273 274 274 273 273 273 273 272 272 272 272 272 272 272 271 271 271 271 272 272 272 272 272 273 273 272 272 272 272 271 271 271 271 271 272 272 272 272 272 272 272 271 271 271 271 271 271 271 272 274
262 262 261 261 261 260 260 260 260 259 259 259 259 259 259 259 259 259 260 260 260 261 261 262 262 263 264 265 266 268 269 270 271 272 272 273 274 274 274 273 272 272 272 272 272 272 272 271 271 271 271 271 271 271 271 271 272 272 272 273 273 273 273 272 272 271 271 271 271 271 271 272 272 272 272 272 272 271 271 271 271 271 271 272 273
262 261 261 260 260 260 260 259 259 259 259 258 258 258 258 259 259 259 259 260 260 261 261 262 263 263 264 265 267 268 269 270 271 271 272 273 274 274 274 273 273 272 272 272 272 272 271 271 271 270 270 270 270 270 270 270 271 271 271 272 273 273 273 273 273 272 271 271 271 271 271 271 271 272 272 272 272 271 271 271 271 271 271 271 272
261 260 260 260 259 259 259 259 258 258 258 258 258 258 258 258 258 259 259 260 260 261 261 262 263 264 264 266 267 267 268 269 270 271 272 273 274 274 274 274 273 273 272 272 272 271 271 271 271 270 270 270 270 270 270 270 270 270 270 271 271 272 272 273 274 274 273 272 271 271 271 271 272 272 273 272 272 271 271 271 271 271 271 271 271
260 260 259 259 259 258 258 258 258 258 257 257 257 258 258 258 258 259 259 260 260 261 261 262 263 263 264 266 267 267 268 269 270 271 272 273 273 274 274 274 273 273 272 272 272 271 271 271 270 270 270 270 270 270 270 269 269 269 270 270 270 270 271 272 273 274 274 273 272 272 272 272 272 272 273 272 272 272 272 272 272 271 271 271 271
260 259 259 258 258 258 258 258 257 257 257 257 257 257 258 258 258 259 259 260 260 261 262 262 263 264 265 266 266 267 268 269 270 270 271 272 273 273 273 273 273 273 273 272 272 271 271 271 270 270 270 270 270 270 270 270 269 269 269 269 269 270 270 271 272 273 274 274 273 273 273 273 273 273 273 273 273 273 273 272 272 271 271 271 271
259 258 258 258 258 258 257 257 257 257 257 257 257 257 257 258 258 259 259 260 260 261 262 262 263 265 265 266 266 267 268 268 269 270 271 272 272 272 272 273 273 273 272 272 272 271 271 271 270 270 270 269 270 270 271 271 270 270 269 269 269 269 269 270 271 272 273 274 274 274 274 274 274 274 274 274 273 274 273 272 272 271 271 271 270
258 258 258 257 257 257 257 257 256 256 256 256 257 257 257 258 258 259 260 260 261 261 262 263 264 265 265 265 266 267 267 267 268 269 270 271 271 272 272 272 272 272 272 272 272 271 271 270 270 270 269 269 270 270 271 271 271 270 270 269 269 269 269 269 269 270 272 273 275 275 275 275 275 275 275 275 275 275 274 273 273 272 271 270 270
258 258 257 257 257 257 256 256 256 256 256 256 257 257 257 258 259 259 260 260 261 261 262 264 264 264 264 265 265 266 266 266 267 268 269 270 270 271 271 271 271 271 271 271 271 271 270 270 270 270 270 269 269 270 271 271 271 271 270 270 270 269 269 269 269 269 271 272 273 275 275 276 276 275 276 276 276 276 275 275 274 273 272 271 271
257 257 257 257 256 256 256 256 256 256 256 256 257 257 258 258 259 259 260 260 261 262 263 263 263 263 264 265 265 265 265 266 266 267 268 269 270 270 270 271 271 271 271 270 270 270 270 270 270 270 271 270 270 271 271 271 271 271 271 271 270 270 270 270 269 270 270 271 272 273 274 275 275 275 275 276 276 276 276 276 275 274 274 273 272
257 257 257 256 256 256 256 256 255 256 256 256 257 257 258 258 259 259 260 260 261 262 262 262 263 263 264 264 264 265 265 265 265 266 267 268 269 269 270 270 270 270 270 270 270 270 270 269 269 270 270 271 271 272 272 272 272 272 271 271 271 271 271 270 270 271 271 271 272 273 273 274 274 274 274 275 275 276 276 275 275 275 275 274 273
257 256 256 256 256 255 255 255 255 256 256 256 257 257 258 259 259 259 260 260 261 261 261 262 263 263 264 264 264 264 265 265 265 265 266 267 268 269 269 270 270 270 270 270 270 270 270 269 269 269 270 271 271 271 272 272 273 273 272 272 272 272 272 272 271 271 272 272 272 273 273 273 273 273 274 274 275 275 275 275 275 275 275 275 274
256 256 256 255 255 255 255 255 255 255 256 257 257 258 258 258 259 259 260 260 261 261 261 262 263 263 263 264 264 265 265 265 265 265 265 266 267 268 269 269 270 270 270 270 270 270 270 270 269 269 270 270 271 271 272 272 273 273 273 274 273 273 273 273 272 272 273 273 273 273 272 272 272 273 274 275 275 275 275 275 275 275 274 274 274
256 256 255 255 255 255 255 255 255 256 256 257 257 258 258 258 259 259 260 260 260 261 261 262 263 263 264 264 264 265 265 265 265 265 265 266 267 267 268 269 270 270 270 271 270 270 270 270 270 270 270 270 271 271 272 272 272 273 274 274 274 274 274 274 274 273 273 273 273 273 272 272 273 274 275 275 275 275 275 275 275 275 274 274 273
255 255 255 255 255 255 255 255 255 256 256 257 257 258 258 258 259 259 260 260 261 261 262 262 263 263 264 264 265 265 265 265 265 265 265 265 266 267 268 269 269 270 270 270 270 270 270 270 270 270 271 271 271 271 272 272 273 273 273 274 275 275 275 275 274 273 273 273 273 272 272 273 274 275 275 276 276 275 275 275 275 275 274 274 273
255 255 255 255 255 255 255 255 255 256 256 257 257 257 258 258 258 259 260 260 261 262 262 262 263 263 264 265 265 266 266 266 265 265 266 266 266 267 267 268 268 269 269 270 270 270 271 271 271 271 271 271 271 272 272 272 273 274 274 274 274 275 276 276 275 274 273 273 273 273 273 275 276 276 275 275 275 276 275 275 275 274 274 273 273
255 255 254 254 254 254 254 255 255 256 256 256 257 257 258 258 258 259 260 261 262 262 262 263 263 264 265 266 267 267 266 266 266 266 267 267 267 267 268 268 268 268 268 269 270 271 271 271 272 272 272 272 272 272 272 273 273 274 274 274 275 275 276 276 276 275 274 274 274 274 274 275 275 275 275 275 276 276 276 275 275 275 274 274 274
255 254 254 254 254 254 254 255 255 256 256 256 257 257 258 258 259 259 260 261 262 262 263 263 264 265 266 267 268 267 266 266 267 267 267 268 268 268 268 269 269 268 268 269 270 271 271 271 271 272 272 272 273 273 273 273 274 274 275 275 275 275 276 276 276 276 275 275 275 275 275 275 275 275 275 275 276 276 276 275 275 275 275 274 274
254 254 254 254 254 254 254 255 255 255 256 256 257 257 257 258 259 260 261 261 261 262 264 264 265 266 267 267 268 267 267 267 268 268 269 269 270 270 270 270 270 269 269 269 270 271 271 271 271 272 272 272 272 272 272 273 273 273 274 274 275 275 275 276 275 275 276 275 275 275 276 275 275 275 275 275 276 276 276 275 275 275 275 274 274
254 254 254 254 254 254 254 255 255 255 256 256 257 257 257 258 259 260 261 261 261 263 264 265 266 266 267 267 267 267 268 269 270 270 270 271 271 272 272 272 271 270 270 270 271 271 272 272 272 272 272 272 272 271 272 272 273 273 273 273 274 274 274 274 274 275 275 275 275 275 275 275 275 274 274 275 275 275 275 275 275 275 274 274 274
254 254 254 253 254 254 254 254 255 255 256 256 256 257 257 257 258 259 260 260 261 263 264 264 265 266 266 266 266 267 268 269 270 271 271 271 272 272 272 273 272 272 271 271 271 272 271 271 271 271 271 271 271 271 272 272 272 272 272 272 272 273 273 273 273 273 274 274 274 274 274 274 274 274 273 274 274 274 275 275 275 275 274 274 274
253 253 253 253 254 254 254 254 254 255 255 256 256 257 257 257 257 258 259 260 261 262 263 263 264 264 265 265 266 267 268 269 270 270 271 271 271 271 272 272 272 272 272 272 272 272 271 271 271 271 271 271 271 271 271 272 272 271 271 271 271 271 271 272 272 272 272 272 272 272 272 272 273 273 273 273 273 274 274 275 275 275 275 275 274
253 253 253 253 253 253 254 254 254 255 255 256 256 256 256 257 257 257 258 259 260 260 261 262 262 263 263 264 265 266 267 268 268 269 269 270 270 270 270 270 270 271 271 271 270 270 270 270 270 270 270 270 270 270 271 271 271 270 270 270 270 269 270 270 270 270 271 271 271 271 271 271 271 272 272 272 273 273 273 274 274 274 274 274 274
253 253 253 253 253 253 253 254 254 255 255 256 256 256 256 256 257 257 258 258 258 259 260 260 261 261 262 262 264 265 266 267 267 267 268 268 268 268 268 268 268 269 269 269 268 268 268 268 268 267 268 269 269 269 269 269 269 269 269 269 268 268 268 268 269 269 269 269 270 270 270 270 270 270 271 271 271 272 272 272 272 272 272 273 273
253 253 253 253 253 253 253 254 254 255 255 255 255 255 255 256 256 257 257 257 258 258 259 259 259 260 261 261 262 264 264 265 265 266 266 266 266 267 267 266 266 266 266 267 267 266 266 266 266 266 267 267 267 268 268 268 268 268 268 268 267 267 267 267 267 267 267 268 268 268 269 269 269 269 269 270 270 270 271 271 272 272 272 272 273
253 253 253 253 253 253 253 254 254 254 255 255 255 255 255 255 256 256 256 257 257 258 258 258 259 259 260 260 261 262 263 263 264 264 264 264 264 264 264 263 262 263 264 264 264 265 265 265 265 265 265 265 266 266 266 266 266 266 266 266 266 266 266 266 266 266 266 266 266 267 267 267 267 268 268 269 269 269 270 270 271 271 272 272 273
253 252 252 252 253 253 253 254 254 254 254 254 254 254 255 255 256 256 256 256 257 257 258 258 258 259 259 259 261 261 261 261 262 262 262 261 261 261 261 260 260 261 261 262 262 263 263 263 263 264 264 264 264 264 264 265 265 265 265 265 265 265 265 265 264 264 265 265 265 265 266 266 266 267 267 267 268 268 269 269 270 270 271 272 272
252 252 252 252 252 253 253 254 254 254 254 254 254 254 254 255 255 255 255 255 256 257 257 257 257 258 258 259 260 261 260 260 260 260 260 260 259 259 259 259 259 259 260 260 261 261 261 261 262 262 262 262 263 263 263 263 263 263 263 263 264 264 264 263 263 263 263 264 264 264 264 265 265 265 266 266 267 267 268 268 269 269 270 270 271
252 252 252 252 252 253 253 253 253 253 253 253 253 254 254 254 254 255 255 255 255 256 256 257 257 257 257 258 259 260 259 259 259 259 259 258 258 258 258 258 258 258 259 259 260 260 260 260 260 261 261 261 261 261 262 262 262 262 262 262 262 263 263 262 262 262 262 263 263 263 263 264 264 264 265 265 266 266 266 267 267 268 268 269 269
252 252 252 252 252 252 253 253 253 253 253 253 253 253 253 254 254 254 254 255 255 255 256 256 256 256 256 257 258 259 259 259 259 258 258 258 258 257 257 257 257 257 258 258 258 259 259 259 259 259 260 260 260 260 260 260 261 261 261 261 261 262 262 262 261 261 261 262 262 262 262 262 263 263 263 264 264 265 265 265 266 266 267 267 268
252 252 252 252 252 252 252 253 253 253 253 253 253 253 253 253 253 253 254 254 254 255 255 255 255 255 256 256 257 258 258 258 258 258 258 258 257 257 257 256 256 257 257 257 258 258 258 258 259 259 259 259 259 259 260 260 260 260 260 260 261 261 261 261 261 261 261 261 261 261 261 261 262 262 262 263 263 263 264 264 265 265 266 266 267
252 252 251 251 252 252 252 252 252 252 252 252 252 252 253 253 252 253 253 253 254 254 254 254 254 254 255 255 256 256 256 257 257 258 258 257 257 257 256 256 256 256 256 256 257 257 258 258 258 258 258 258 259 259 259 259 260 260 260 260 260 260 260 260 260 260 260 260 260 260 260 260 261 261 261 262 262 262 263 263 264 264 265 265 266
252 252 251 251 251 252 252 252 252 252 252 252 252 252 252 252 252 252 252 253 253 253 253 253 253 254 254 254 255 255 255 255 256 257 257 257 257 256 256 256 256 256 256 256 256 257 257 257 257 257 257 258 258 258 259 259 259 259 260 260 260 260 260 259 259 259 259 259 259 260 260 260 260 261 261 261 262 262 262 263 263 263 264 264 265
252 251 251 251 251 251 251 251 251 251 252 252 252 251 251 251 251 252 252 252 252 253 253 253 253 253 253 253 254 254 254 254 255 256 256 257 256 256 256 256 256 255 255 255 256 256 256 256 257 257 257 257 257 257 258 258 258 259 259 259 259 259 259 259 259 259 259 259 259 259 259 260 260 260 261 261 261 261 262 262 262 263 263 264 264
252 251 251 251 251 251 251 251 251 251 251 251 251 251 251 251 251 251 251 251 252 252 252 252 252 252 252 253 253 253 253 254 254 254 255 256 256 255 255 255 255 255 255 255 255 255 255 256 256 256 256 257 257 257 257 257 258 258 258 258 258 258 258 258 258 258 258 259 259 259 259 259 260 260 260 261 261 261 261 262 262 262 263 263 264
252 251 251 250 250 251 251 251 251 251 251 251 250 250 251 251 251 251 251 251 251 251 251 251 251 252 252 252 252 252 253 253 253 254 254 254 255 255 254 255 255 255 255 255 255 255 255 255 255 255 255 256 256 256 257 257 257 257 257 257 258 258 258 258 258 258 258 259 259 259 259 259 259 260 260 260 260 261 261 261 262 262 263 263 263
252 251 251 250 250 250 250 250 250 250 250 250 250 250 250 250 250 250 250 250 251 251 251 251 251 251 251 251 252 252 252 252 253 253 253 253 253 254 254 254 254 254 254 254 255 254 254 254 254 254 255 255 255 255 256 256 256 257 257 257 257 257 257 257 257 258 258 258 258 259 259 259 259 260 260 260 260 261 261 261 261 262 262 262 263
252 251 251 250 250 250 250 250 250 250 250 250 250 250 250 250 250 250 250 250 250 250 250 250 250 250 250 251 251 251 252 252 252 252 252 252 252 252 252 252 253 253 254 254 254 254 254 254 254 254 254 254 254 254 255 255 255 256 256 256 256 256 256 257 257 257 258 258 258 258 259 259 259 259 260 260 260 260 261 261 261 261 262 262 263
252 251 251 250 250 250 250 250 249 249 249 249 249 249 249 249 249 249 249 249 250 250 250 250 250 250 250 250 251 251 251 251 251 252 252 251 251 251 252 252 252 252 253 253 254 254 254 254 254 254 254 254 254 254 254 254 254 255 255 255 255 256 256 256 257 257 257 258 258 258 258 259 259 259 259 260 260 260 261 261 261 261 262 262 262
252 251 251 250 250 250 250 250 249 249 249 249 249 249 249 249 249 249 249 249 249 249 249 250 250 249 250 250 250 250 250 251 251 251 251 251 251 251 251 251 251 252 252 252 253 253 253 253 253 253 253 253 253 253 253 253 254 254 254 254 255 255 255 256 256 257 257 257 257 258 258 258 258 259 259 259 260 260 260 261 261 261 261 262 262
252 251 251 250 250 250 250 250 249 249 249 249 249 249 249 249 248 248 248 249 249 249 249 249 249 249 249 249 250 250 250 250 250 251 251 250 250 250 250 250 251 251 251 251 252 252 253 253 253 253 253 252 252 253 253 253 253 253 253 253 254 254 255 255 256 256 256 257 257 257 257 257 258 258 258 259 259 260 260 260 261 261 261 262 262
Wind_Speed
30 29 29 32 37 41 42 41 40 38 36 34 32 29 28 28 30 31 31 30 29 29 29 28 27 27 28 27 27 27 28 29 29 28 29 30 30 31 31 31 31 31 29 29 29 29 29 28 28 27 26 26 26 26 26 26 25 25 25 25 24 24 22 18 11 10 18 22 18 18 21 21 22 22 20 20 20 19 18 17 17 17 17 16 15
28 30 34 39 41 41 39 37 35 33 32 30 27 27 30 33 36 37 36 32 31 31 31 31 31 30 30 30 29 30 30 30 30 29 29 30 30 30 30 30 30 30 29 28 28 28 28 27 27 27 26 27 27 26 26 25 25 25 25 25 25 25 24 22 17 11 14 21 19 18 20 20 21 22 19 19 20 19 19 19 18 18 18 17 16
31 36 40 40 37 35 35 33 31 29 28 28 27 31 40 46 45 43 41 38 37 35 33 33 34 35 35 35 34 32 31 31 31 31 31 30 30 30 30 29 29 29 29 29 28 28 27 27 26 26 26 26 26 26 25 25 25 25 26 25 25 25 25 24 22 14 13 19 19 17 18 19 20 21 18 18 19 19 20 20 19 18 18 18 17
36 38 39 36 33 32 32 29 27 29 30 29 30 37 44 47 43 41 42 41 40 39 37 36 36 36 37 37 36 34 33 32 31 31 31 31 31 31 30 30 30 29 29 29 29 28 27 26 26 26 26 25 25 25 24 24 25 25 25 25 25 25 25 24 24 20 17 17 18 17 17 18 20 20 18 18 19 19 19 20 19 18 17 17 17
35 37 35 33 30 30 30 30 30 32 32 31 35 37 37 37 35 34 35 36 35 35 36 34 34 35 35 35 36 36 34 33 32 32 32 31 32 32 31 30 30 29 29 29 29 29 28 27 26 26 26 25 24 24 24 24 24 24 25 25 24 24 25 24 23 23 20 18 18 18 17 18 21 21 19 18 18 19 19 18 17 16 16 16 16
33 33 31 30 30 31 33 33 32 33 32 33 35 34 32 31 31 30 31 32 32 32 32 31 32 33 35 35 34 34 33 32 31 31 31 31 32 32 31 30 29 29 29 29 29 29 28 27 27 26 26 25 24 24 24 24 24 23 23 24 24 24 24 24 23 22 21 20 20 19 17 17 20 21 19 17 16 17 19 19 16 14 13 14 14
30 28 29 32 33 33 33 31 31 32 32 33 33 32 31 31 31 32 31 31 32 33 33 33 33 34 34 33 30 30 31 30 30 30 31 31 32 32 31 30 29 29 29 29 29 29 28 27 27 27 27 26 26 25 25 24 23 23 23 24 24 24 24 23 23 22 20 19 19 19 17 17 19 20 19 16 14 15 17 16 15 15 15 14 14
26 29 33 33 32 32 31 31 31 32 32 32 32 31 31 32 32 33 32 32 33 33 33 34 34 32 30 29 28 30 32 32 31 31 31 32 31 31 30 29 28 28 28 28 28 28 27 27 27 27 27 27 27 27 26 25 24 23 23 23 24 24 23 22 22 20 18 17 17 17 16 15 17 19 17 14 12 13 14 11 11 15 17 16 13
28 34 35 32 30 31 31 31 31 31 32 33 32 32 33 33 33 33 33 33 33 33 33 32 32 32 31 32 34 35 35 34 32 30 30 30 30 30 29 28 28 27 26 26 26 26 26 26 27 27 28 28 27 27 26 24 23 22 22 22 23 23 23 22 20 18 17 15 15 16 14 12 15 16 15 13 12 13 13 11 11 14 16 17 12
34 37 34 32 31 31 31 30 30 32 34 34 33 34 34 34 35 34 34 34 34 33 33 32 33 36 37 38 38 36 35 35 32 30 29 29 29 29 29 28 28 27 26 25 25 25 26 26 27 27 27 27 26 25 24 23 23 23 23 24 24 24 23 22 20 19 17 15 15 15 11 11 15 16 15 15 14 13 14 12 11 12 14 14 9
38 36 33 33 32 31 31 31 32 35 35 35 35 36 36 36 36 36 36 36 35 34 34 36 38 39 39 39 38 37 36 34 30 28 28 28 28 28 29 29 28 27 27 26 25 25 25 25 26 26 26 25 24 23 23 24 25 26 26 26 27 28 27 24 22 21 19 16 17 17 13 12 17 17 15 15 15 15 14 13 10 9 9 7 4
37 35 33 33 32 32 33 34 37 38 38 37 38 38 38 38 38 38 38 38 37 36 36 37 38 38 38 39 37 36 35 31 27 27 28 27 28 28 27 28 28 28 27 27 26 26 25 25 25 25 25 25 25 24 23 24 25 26 26 26 26 28 29 29 26 24 22 20 18 17 17 16 17 18 17 17 17 15 13 11 9 7 6 5 4
36 35 34 33 33 35 36 37 39 40 40 40 40 40 39 39 39 39 39 39 38 37 37 37 37 37 38 37 34 33 33 30 28 29 29 27 27 28 25 25 28 29 28 29 28 27 27 26 24 25 25 25 25 25 25 25 25 25 26 25 24 23 25 28 29 28 26 24 21 20 21 20 19 21 21 18 16 14 11 10 9 7 7 7 8
36 36 35 34 36 37 37 38 39 40 42 41 41 41 40 39 39 39 39 39 38 37 38 38 37 37 36 34 33 33 33 31 29 29 28 25 26 27 23 21 25 29 29 29 30 29 28 27 25 25 25 25 25 25 24 24 24 23 25 26 27 26 23 22 23 25 26 26 25 25 25 23 23 24 23 19 16 14 13 13 11 8 8 9 11
34 35 36 37 38 38 38 39 40 41 42 41 40 40 39 39 40 40 39 38 38 38 38 38 38 37 35 33 33 35 33 30 28 27 26 24 24 25 22 18 20 25 28 29 29 29 28 27 27 26 25 26 26 25 24 23 23 22 23 25 27 29 27 24 21 20 24 27 28 27 26 25 24 23 21 18 16 15 15 14 13 11 11 11 13
34 35 37 38 39 38 38 40 41 42 42 41 40 40 40 40 41 40 39 38 39 39 39 39 40 37 33 32 34 34 32 29 27 26 25 24 23 21 20 17 16 19 23 25 27 28 28 27 27 26 26 27 26 23 20 21 22 23 23 24 26 27 30 29 24 19 20 25 28 28 26 24 22 20 18 17 16 15 15 16 16 13 10 10 11
35 36 37 39 40 40 40 40 41 42 41 40 40 40 40 41 40 40 39 39 39 39 40 40 37 33 31 32 33 31 30 29 27 25 23 22 21 19 18 16 14 16 18 21 23 25 26 28 28 27 27 28 27 22 20 20 21 23 24 25 25 25 29 32 30 26 23 23 25 27 26 24 23 22 20 18 17 16 14 16 17 15 10 7 6
37 38 39 40 40 41 41 40 40 41 40 39 39 40 41 40 40 39 39 39 39 39 39 36 31 30 33 33 30 29 30 29 26 24 23 21 20 19 17 15 14 15 17 18 20 22 24 26 27 27 28 29 26 22 21 22 21 21 23 24 24 24 26 27 28 30 29 25 24 25 25 24 24 23 22 21 19 18 18 18 17 13 11 10 6
39 39 40 40 40 41 41 40 40 40 39 39 39 40 40 39 39 38 38 39 39 38 34 30 30 34 35 33 29 28 29 29 26 24 23 22 20 20 18 14 13 14 15 17 18 20 22 23 23 25 28 28 26 23 22 24 23 22 22 22 23 25 25 23 23 28 31 30 27 25 24 24 24 22 22 22 21 22 23 23 20 15 13 13 10
39 39 40 40 41 41 40 40 40 39 39 39 39 38 38 38 38 38 38 38 37 34 31 31 33 35 33 31 30 29 28 28 26 24 23 22 21 20 18 15 13 12 13 15 18 20 21 23 23 24 24 25 25 24 24 24 25 24 23 23 25 24 23 22 21 22 26 30 31 28 25 24 23 21 19 19 19 19 20 21 22 21 17 15 13
39 39 40 41 41 41 40 39 39 38 38 38 37 37 36 37 37 37 37 36 33 32 33 33 33 32 32 31 30 29 28 27 25 24 23 23 22 20 19 17 14 13 13 14 16 19 20 21 23 23 23 23 24 25 25 24 25 25 25 27 26 22 20 22 22 21 23 27 29 29 28 26 25 24 22 22 20 18 16 16 18 20 19 17 15
38 40 41 41 41 41 40 39 38 37 37 36 35 36 36 36 36 36 35 33 32 33 34 33 30 30 31 31 30 29 27 26 25 23 22 22 22 21 20 19 17 16 15 15 17 18 19 20 21 21 21 23 24 25 26 26 25 26 27 27 24 21 21 23 23 21 22 24 24 25 25 24 24 24 24 23 22 20 18 17 17 18 19 19 18
38 40 41 41 41 41 40 38 37 36 36 35 34 34 35 35 35 34 33 32 32 32 32 30 28 29 30 30 30 29 28 26 24 23 21 22 22 21 20 20 19 18 18 18 19 20 20 21 22 21 21 23 25 25 25 26 26 26 27 25 23 23 23 23 22 22 22 22 22 22 21 21 21 21 21 20 20 20 19 20 19 19 18 19 20
38 39 40 40 40 40 38 37 37 35 35 34 33 33 34 35 35 33 32 32 31 29 28 27 26 26 27 29 30 30 29 27 25 23 21 21 22 21 21 20 19 19 19 19 20 21 22 23 24 23 22 23 24 24 24 25 25 26 26 24 24 25 25 22 22 23 22 21 21 22 20 20 19 18 18 18 18 18 18 18 18 18 18 18 19
39 39 39 40 39 39 38 37 35 34 34 33 32 33 34 34 33 32 33 32 29 26 26 25 25 24 25 27 28 30 30 28 26 25 22 20 19 19 19 19 18 18 19 19 19 19 21 23 23 22 21 21 22 22 23 23 24 24 24 23 23 25 25 24 23 23 23 21 21 21 20 19 18 15 14 13 12 12 11 11 12 12 13 15 17
39 39 39 38 37 37 36 36 34 33 34 33 32 32 33 33 33 32 31 30 27 25 24 24 24 25 26 26 26 29 29 27 26 25 23 21 19 17 17 17 16 16 17 18 18 18 20 22 21 19 18 18 19 20 21 22 22 22 23 24 23 23 24 24 24 24 23 21 20 20 21 20 17 14 13 12 10 9 8 7 7 7 8 10 13
37 38 37 36 35 34 34 34 33 33 34 34 34 33 32 33 32 31 30 28 26 24 25 25 25 24 24 24 25 26 26 26 25 25 23 22 20 18 17 16 15 15 15 15 15 17 19 20 19 17 16 16 17 20 23 24 23 22 22 23 22 21 21 23 24 25 24 22 21 21 21 20 17 15 14 12 10 9 9 9 8 8 8 9 11
35 36 35 34 33 33 32 32 32 33 34 34 34 33 32 32 31 30 29 26 24 24 26 26 25 23 22 22 24 24 23 24 25 24 24 23 22 21 20 20 18 16 14 13 11 13 17 18 17 16 16 16 16 18 20 21 21 21 21 22 21 21 20 20 23 25 25 24 21 20 19 18 16 15 14 13 11 10 10 10 11 11 10 10 10
34 34 33 32 32 32 31 31 32 33 34 34 34 33 31 29 29 30 29 27 27 28 28 26 24 23 23 23 23 22 22 25 27 26 24 23 23 23 21 19 18 16 14 12 9 9 12 13 13 14 14 13 11 7 7 9 9 10 12 14 15 16 16 17 19 21 22 21 20 19 18 17 15 13 12 11 10 9 9 11 12 12 11 11 11
33 33 32 32 32 31 31 31 33 33 33 33 34 35 33 29 27 26 27 29 30 30 29 28 26 26 26 26 27 26 25 28 29 25 23 24 25 23 18 13 13 13 10 10 11 9 9 9 9 10 11 11 8 6 11 15 14 13 12 12 13 13 14 14 15 16 17 18 18 18 17 16 14 12 10 8 7 6 7 10 13 14 13 13 12
31 32 32 32 31 30 30 32 33 33 32 32 33 34 36 35 31 27 27 29 31 31 31 30 30 29 27 28 31 32 32 32 30 22 18 20 19 16 11 8 11 12 9 8 9 9 7 5 6 7 8 9 8 9 12 14 14 13 12 11 11 11 11 12 12 11 12 12 13 13 13 12 11 9 8 7 7 6 7 9 11 13 15 15 15
30 31 32 32 31 30 30 31 32 31 32 32 32 31 32 34 35 34 32 30 29 28 29 30 32 32 30 29 31 34 34 33 31 28 22 20 21 20 18 14 6 6 9 9 7 6 5 5 5 7 8 8 9 9 11 12 12 11 10 10 9 8 8 9 9 8 8 8 8 8 8 8 9 8 8 8 8 8 9 9 9 10 11 13 15
30 30 31 31 30 30 31 31 30 30 31 31 31 30 29 29 30 35 38 37 35 32 31 31 33 33 32 32 32 34 33 31 31 31 29 27 25 24 24 25 22 12 6 7 6 4 4 5 5 6 7 8 9 8 9 9 9 9 9 9 9 9 8 8 8 7 7 7 7 7 7 7 7 8 8 8 9 9 10 10 9 8 7 7 9
30 30 29 29 29 30 30 30 29 30 30 29 28 29 29 28 28 29 32 34 36 37 37 37 36 34 33 33 32 32 32 31 30 29 28 27 26 22 21 24 25 23 19 16 14 12 10 8 7 5 5 6 7 7 8 8 8 8 8 8 8 8 7 7 7 6 6 7 8 8 8 8 8 8 9 9 9 10 11 11 10 10 9 8 8
31 31 30 28 28 28 28 28 29 29 28 28 28 28 29 29 28 27 27 26 27 28 32 35 35 33 31 31 31 31 31 29 28 28 27 27 25 22 22 23 23 22 20 18 15 14 12 11 10 8 6 6 5 4 5 5 5 5 5 5 5 4 4 4 4 4 6 7 8 9 9 9 9 10 10 10 10 11 12 12 12 11 11 12 11
31 30 30 30 29 28 28 27 28 28 27 27 28 28 28 27 26 25 26 27 24 23 26 31 32 31 30 31 30 30 30 28 26 26 26 26 25 24 23 21 18 18 18 17 14 13 12 10 9 8 6 6 5 3 2 2 1 1 1 1 1 2 2 3 3 3 5 6 7 8 9 9 9 9 10 10 10 10 11 12 12 12 12 12 12
30 29 29 30 29 28 27 27 27 27 26 26 27 28 27 26 25 25 25 25 24 23 24 28 29 29 31 33 32 29 28 26 24 25 27 28 28 28 25 20 17 16 17 16 14 12 12 11 10 8 7 6 6 5 3 3 2 2 2 2 3 3 3 3 3 3 4 5 6 6 7 8 8 9 9 10 9 9 9 10 10 10 10 9 9
29 28 28 28 28 27 26 26 27 27 27 27 27 27 26 24 24 25 25 24 23 23 23 25 26 27 29 32 31 28 27 27 27 29 31 30 29 27 24 21 19 18 16 15 14 12 11 11 10 8 8 7 6 6 5 4 4 3 3 3 2 2 2 2 3 3 3 4 5 5 6 7 8 8 9 9 9 9 9 9 9 9 9 8 7
30 30 29 27 26 25 25 26 26 27 26 26 27 26 25 24 23 24 24 23 23 22 22 23 24 26 28 30 30 28 26 25 24 25 26 26 25 24 22 21 20 18 17 16 14 13 12 11 9 8 7 7 6 6 5 5 4 4 3 3 3 2 3 3 3 3 3 4 5 5 6 7 7 7 8 8 9 9 9 9 9 9 9 9 8
30 31 30 27 25 24 25 25 25 25 25 26 26 25 24 23 23 24 24 22 21 21 21 22 24 26 27 28 28 27 24 21 20 21 21 22 22 22 21 20 19 18 18 16 15 13 12 11 9 8 7 6 5 5 4 4 3 2 2 1 3 3 3 2 1 2 3 4 4 5 6 6 6 7 7 7 8 9 9 9 9 8 8 9 8
30 30 30 28 25 24 24 25 25 25 25 24 24 24 23 23 23 24 23 21 20 20 21 22 24 25 25 26 27 26 22 21 20 19 19 20 21 21 20 20 18 17 17 16 14 13 12 10 9 8 7 6 5 4 4 3 2 2 1 1 3 3 2 2 1 2 2 3 4 4 4 4 5 6 6 6 7 7 8 8 8 8 8 8 8
30 29 29 28 26 24 23 24 24 25 25 24 23 23 22 23 23 23 21 20 20 20 21 23 25 24 24 25 26 25 23 22 22 20 18 19 20 20 20 20 18 17 16 15 13 12 11 10 9 9 8 7 6 5 4 4 3 3 2 1 2 2 2 2 2 2 2 2 3 4 4 4 4 5 5 5 6 6 6 7 7 7 7 7 7
29 29 28 27 25 24 23 23 24 24 24 23 22 23 22 22 23 22 21 21 21 20 21 23 25 24 23 24 24 24 24 24 23 21 19 19 20 20 20 19 18 18 17 15 12 10 10 9 8 8 8 8 7 6 6 5 4 4 2 1 0 1 1 1 1 2 2 2 2 3 4 4 4 5 5 5 5 5 5 6 6 6 7 7 7
29 29 28 26 25 24 24 23 23 23 23 22 22 22 21 22 22 22 22 21 21 20 21 23 24 23 23 24 24 23 24 24 23 21 20 19 19 21 21 20 19 19 19 16 13 11 10 9 9 8 7 6 6 6 6 5 4 4 3 2 1 1 1 1 1 2 2 2 2 2 3 3 4 4 4 4 4 4 5 5 5 5 6 6 7
28 28 26 25 24 25 24 24 23 23 23 23 23 22 22 21 22 22 21 21 21 21 21 22 23 22 23 23 23 23 23 23 22 21 21 20 20 21 22 21 20 19 18 17 15 13 11 10 10 9 8 7 6 5 5 5 4 4 3 2 2 2 2 1 1 0 1 2 2 3 3 3 4 4 4 4 4 4 5 4 4 5 5 6 6
28 27 25 23 23 23 24 24 24 23 23 23 23 23 22 21 21 21 21 21 20 20 21 22 23 22 23 23 22 22 22 22 21 21 21 21 21 21 22 21 20 19 18 17 17 15 13 10 9 9 9 8 7 6 5 5 4 3 3 3 2 2 1 1 1 1 1 0 1 2 3 3 3 3 3 4 4 4 4 4 4 5 5 5 6
29 27 24 23 22 22 23 23 22 22 22 22 22 22 22 21 21 20 20 20 20 20 20 21 22 22 23 22 22 22 22 21 20 20 21 21 21 21 21 21 20 18 17 17 16 16 15 13 10 9 8 8 7 6 6 6 5 4 3 3 3 2 2 2 2 1 1 1 1 1 1 2 2 2 3 4 4 4 4 3 4 4 5 5 6
28 27 25 24 23 22 22 22 22 22 22 23 23 22 22 21 21 21 21 20 20 20 20 20 21 22 22 22 22 22 21 20 20 20 21 21 21 20 21 20 19 18 17 16 15 15 15 15 13 10 8 7 6 6 6 6 6 5 5 4 3 3 3 3 3 2 2 2 1 1 1 1 1 1 2 3 4 4 4 3 3 4 5 5 5
27 26 24 24 23 23 22 22 22 22 22 22 22 22 22 21 21 21 21 20 20 20 20 20 21 22 22 21 21 22 21 21 20 20 21 21 21 21 20 20 19 18 17 16 15 13 13 14 14 12 10 8 7 6 6 6 6 6 6 5 5 4 4 4 4 3 3 2 2 2 1 1 1 1 1 2 3 3 3 3 2 3 4 5 5
27 25 24 23 23 23 23 23 22 22 22 21 21 21 21 21 22 22 21 21 21 21 20 20 21 21 21 21 21 22 21 21 20 20 20 21 22 22 21 21 20 18 17 16 15 13 11 12 13 12 12 11 10 8 7 6 6 5 6 6 6 5 5 4 3 3 3 3 3 2 2 2 1 1 1 1 2 2 3 2 2 2 3 4 5
27 25 24 24 23 23 23 23 23 23 23 22 21 20 21 21 22 22 22 21 21 21 21 21 21 21 20 19 20 20 20 19 19 19 20 21 22 22 21 21 20 19 18 17 16 14 12 11 10 11 11 12 12 10 8 6 6 6 6 6 6 6 5 4 4 3 3 3 3 3 3 3 2 2 2 1 1 2 2 2 2 2 2 3 3
Wind_Direction
342 344 345 341 335 331 328 326 325 326 327 329 327 327 329 331 330 329 329 328 328 327 324 319 315 311 307 302 299 296 295 294 293 294 293 287 279 268 258 249 243 240 240 239 240 241 241 242 243 245 246 245 245 243 241 241 240 240 241 241 243 244 243 242 247 265 266 263 262 265 272 280 288 292 297 301 306 311 307 297 288 285 287 289 285
346 343 340 335 331 329 328 328 329 330 332 333 333 336 336 334 331 329 326 323 321 320 318 316 314 310 306 302 298 296 295 295 295 294 290 284 276 266 255 247 242 240 239 239 240 240 240 241 243 245 246 245 244 242 240 240 240 240 241 240 241 244 244 245 248 254 266 265 262 267 273 278 285 289 294 300 306 311 310 306 299 289 285 288 286
340 336 334 332 331 331 331 332 333 336 337 335 335 334 328 325 324 322 319 317 316 314 310 308 307 304 303 300 297 295 293 293 293 291 286 281 275 266 255 246 242 240 239 239 240 239 239 241 243 244 245 243 242 242 241 240 240 240 241 240 241 243 244 245 245 245 259 267 265 267 273 278 283 287 292 298 303 308 309 310 308 296 286 284 283
336 334 333 332 334 335 335 336 337 338 337 333 331 328 324 323 322 320 318 317 315 313 310 307 305 303 301 298 295 292 289 289 287 284 281 279 275 267 256 248 244 241 240 240 239 239 239 240 242 243 243 242 241 242 241 240 239 239 240 241 240 242 245 244 243 243 250 265 268 266 271 277 282 285 291 297 300 305 309 309 306 301 291 282 278
335 335 334 334 335 337 337 336 335 334 332 328 327 326 324 324 323 321 320 318 316 314 312 310 307 304 302 299 295 290 286 283 282 279 277 276 274 268 258 251 247 244 243 241 239 239 239 240 242 243 242 241 240 240 240 239 238 237 237 240 240 241 243 243 243 243 245 256 267 268 269 274 278 282 288 294 300 306 311 309 305 304 299 285 275
335 335 337 337 334 334 333 332 331 330 328 326 326 325 325 324 323 321 320 317 316 315 313 311 309 305 303 300 296 292 287 283 279 277 275 274 272 266 258 252 248 246 243 241 240 240 240 241 242 242 240 240 238 238 239 238 238 237 236 238 241 241 241 241 241 241 242 250 261 266 266 268 274 281 284 290 300 307 311 311 309 311 311 301 287
337 338 337 335 331 331 331 330 330 328 326 325 325 324 325 324 323 321 319 316 316 314 312 310 307 304 300 298 295 295 294 289 284 280 277 275 271 264 257 251 248 246 243 241 240 240 240 241 242 242 241 240 239 239 239 238 238 238 238 239 241 240 238 238 238 238 240 246 255 260 261 263 269 276 282 288 297 303 304 307 310 316 321 318 305
338 339 335 331 329 330 330 329 328 326 326 325 324 324 324 323 322 320 318 316 314 312 311 309 306 303 301 299 299 298 296 292 286 282 277 273 268 261 255 249 246 244 242 241 240 239 240 241 242 243 243 241 241 239 238 238 237 238 239 239 238 236 236 236 236 235 238 243 249 254 257 260 264 270 277 284 290 297 300 301 307 315 322 321 310
340 338 334 330 329 329 329 328 327 327 327 326 324 324 323 322 321 319 317 316 314 312 311 310 308 306 305 304 302 299 295 290 286 282 276 271 265 258 252 247 244 242 241 240 239 239 240 241 242 243 243 243 241 239 238 236 235 237 240 239 237 235 234 235 235 232 235 240 246 251 252 252 258 263 269 272 277 287 294 298 302 311 321 322 311
340 337 332 329 329 329 328 327 327 328 328 327 325 323 322 321 319 318 317 316 314 312 310 308 307 306 305 304 302 299 295 292 288 283 277 272 264 254 247 244 242 240 239 238 238 238 239 241 243 244 244 243 240 238 236 236 238 241 243 242 240 236 233 233 233 231 233 236 240 245 247 247 251 254 259 268 276 282 285 289 297 308 323 326 317
338 335 332 330 330 330 328 327 327 327 327 326 325 323 322 320 319 317 317 315 313 311 310 308 308 308 307 305 304 302 298 293 289 287 283 276 268 255 242 238 238 237 236 235 236 237 239 241 243 243 243 241 238 237 238 241 245 248 249 246 242 238 235 232 231 229 230 234 238 239 237 242 248 249 254 266 273 277 277 278 283 296 317 326 316
337 334 332 331 331 330 329 327 327 327 327 326 325 323 321 320 319 317 317 316 315 312 311 310 310 311 311 309 308 307 304 297 292 292 288 279 271 261 244 233 233 233 233 233 235 236 238 240 241 241 240 238 238 240 242 245 248 250 252 251 246 239 233 232 233 231 228 229 234 234 233 238 246 248 252 262 269 272 274 272 270 276 284 284 283
336 334 333 332 331 330 329 328 326 326 327 326 325 324 322 321 320 319 317 317 316 313 312 312 311 312 312 310 308 309 307 302 298 296 291 281 272 266 253 235 230 231 230 231 233 234 236 237 237 237 238 239 240 242 244 247 249 250 251 254 258 252 236 229 232 233 231 230 229 231 233 233 238 247 254 261 264 262 262 262 263 265 265 272 283
335 334 333 332 331 330 329 328 326 326 326 326 325 324 323 321 320 319 318 318 316 314 313 312 311 311 310 307 304 306 306 303 301 297 291 282 273 269 263 244 231 230 230 231 231 232 233 233 233 234 235 237 239 241 244 246 248 249 249 251 258 261 254 243 238 233 230 229 229 234 236 235 240 250 260 263 258 252 254 260 265 269 272 279 287
333 333 332 331 331 330 329 327 326 326 326 326 325 324 323 322 321 320 320 318 316 315 313 311 311 310 307 306 306 307 306 305 304 301 293 284 277 275 273 259 237 230 230 230 230 232 232 231 232 233 233 234 237 239 241 244 245 246 248 249 251 255 258 256 252 242 231 227 231 237 239 240 246 254 258 258 252 249 256 264 270 272 276 282 287
332 332 330 330 330 330 329 327 326 326 326 325 324 324 323 322 322 321 320 318 317 315 314 313 312 308 307 310 311 309 307 308 308 304 296 290 287 285 281 271 250 234 231 230 230 232 232 231 232 231 231 234 236 236 237 241 242 241 242 246 248 251 252 250 250 253 243 232 233 240 243 246 250 253 252 249 248 251 254 261 266 264 265 279 287
331 331 330 329 329 329 328 327 326 325 325 324 323 323 323 322 322 322 320 318 317 315 314 313 311 308 310 313 312 310 310 310 309 305 300 295 294 293 285 273 259 245 238 235 234 233 232 232 231 230 230 234 235 233 235 241 242 237 235 237 240 245 248 246 245 249 249 241 236 237 242 247 246 245 244 242 246 250 246 246 251 248 244 258 276
332 331 329 328 328 328 328 327 325 325 324 323 322 322 322 321 321 322 320 317 316 315 313 310 309 312 315 313 311 311 311 310 308 306 303 297 295 295 292 280 265 254 246 240 237 234 232 231 230 229 231 234 234 232 236 242 243 238 233 230 231 236 241 242 242 241 243 246 243 235 233 236 237 238 237 236 237 238 233 233 235 228 220 220 228
331 329 327 327 327 327 328 327 326 325 323 322 322 322 321 321 321 322 321 319 317 316 313 311 313 316 316 313 312 313 313 311 308 305 303 300 298 297 296 290 273 256 246 239 235 233 232 230 227 228 233 235 234 233 238 241 240 238 236 230 227 232 235 237 238 235 235 240 246 243 236 232 234 235 236 236 237 235 235 235 231 221 214 216 223
329 328 327 327 327 327 328 328 326 325 323 322 323 322 321 321 321 322 321 320 318 316 316 316 315 314 313 313 313 312 311 311 308 304 301 298 296 295 294 290 278 262 248 236 230 230 232 231 229 229 234 237 236 236 240 241 238 236 234 232 231 233 234 233 232 231 229 232 239 243 242 240 241 244 244 244 243 241 242 240 234 231 227 225 226
329 329 327 327 328 328 329 328 327 326 325 324 323 322 323 322 321 321 321 319 318 318 319 317 314 311 312 312 311 310 310 309 306 303 300 296 293 293 293 289 282 273 260 241 230 227 228 231 232 231 235 241 244 244 243 243 240 234 230 232 235 235 232 231 230 225 224 228 233 238 242 245 249 251 252 251 249 248 250 246 240 238 236 234 233
330 329 328 328 328 329 329 330 329 327 326 326 323 322 323 323 322 321 320 319 319 319 318 317 314 312 312 312 310 310 310 309 306 302 298 295 291 289 287 284 278 271 260 245 238 235 232 234 236 234 236 243 248 249 247 245 242 237 231 232 235 232 227 227 227 221 219 221 225 230 236 241 244 245 246 248 249 248 247 246 246 245 243 243 241
330 329 329 329 329 330 330 330 330 329 327 327 325 322 324 324 323 322 321 320 319 318 317 317 315 313 312 312 311 310 309 309 307 302 296 294 291 287 283 279 272 266 258 247 242 241 239 241 244 242 242 247 250 251 250 248 247 244 238 233 230 226 224 221 217 213 213 213 216 222 229 233 236 238 240 241 241 240 239 241 244 246 247 248 247
330 329 330 330 329 330 330 330 330 330 329 328 326 324 325 325 323 323 322 320 318 316 315 316 315 314 312 310 309 309 308 307 305 302 297 293 290 287 283 279 273 267 262 255 248 243 241 245 249 247 247 251 252 250 249 248 247 247 244 238 229 223 220 214 207 206 206 208 214 220 225 228 231 234 234 233 234 237 240 244 247 248 249 250 251
331 330 330 330 330 330 330 330 330 331 330 329 327 326 326 325 323 323 322 320 317 315 314 315 314 312 309 306 305 307 307 305 304 305 302 297 294 290 285 281 277 269 264 262 257 249 245 247 249 249 250 252 252 251 250 247 245 243 243 242 235 226 219 211 203 199 201 206 212 217 223 228 228 229 230 232 236 242 247 249 248 246 245 246 249
331 330 330 330 330 331 330 330 331 331 331 330 328 327 327 325 323 322 321 320 318 316 314 313 312 310 307 305 305 306 306 305 304 307 309 306 302 298 291 285 280 272 268 265 258 252 250 250 249 250 254 253 249 248 248 248 246 242 238 238 239 234 223 211 199 193 197 204 209 215 222 225 223 224 230 238 245 245 245 243 238 237 236 234 238
330 329 329 330 330 331 330 329 329 330 330 331 330 330 330 328 324 322 321 320 320 319 316 314 311 308 306 309 312 312 308 305 305 309 315 314 309 304 299 292 283 273 266 263 258 253 252 251 249 250 253 251 249 249 248 248 247 242 236 234 234 235 229 214 199 195 200 205 207 214 221 222 223 227 232 240 247 247 243 237 228 225 226 222 225
329 328 329 330 330 331 330 329 329 329 329 330 330 330 331 330 325 322 321 321 321 317 314 311 310 311 314 321 325 324 317 310 309 311 311 307 299 294 290 286 282 273 260 252 256 258 252 246 244 247 252 255 257 254 246 241 238 235 232 230 230 234 234 221 204 199 202 203 203 206 211 215 220 225 229 234 241 242 239 233 225 222 218 210 210
330 329 330 330 330 331 330 329 330 329 328 329 330 330 330 329 325 322 322 325 324 319 316 316 320 328 335 335 335 333 324 318 318 313 305 298 292 288 286 280 274 270 256 239 241 254 249 237 233 239 244 248 249 233 179 162 170 183 192 199 201 205 208 201 192 188 190 191 190 189 190 195 201 206 208 214 224 230 231 229 227 222 212 205 209
331 330 331 331 331 331 330 329 330 330 329 330 330 330 331 332 330 327 326 327 328 327 328 332 339 347 350 345 342 340 332 330 331 320 300 298 302 302 298 281 261 257 248 228 227 240 244 237 233 232 226 220 212 162 122 118 116 115 119 126 134 141 149 153 157 161 167 172 173 172 173 175 178 180 180 184 196 212 222 226 228 222 210 203 209
330 330 331 330 330 330 329 329 330 330 330 331 332 331 331 332 334 335 333 333 335 337 340 343 348 355 356 350 346 346 344 347 354 347 318 313 328 334 325 289 251 239 223 208 217 226 223 216 214 206 194 184 171 143 128 126 123 118 114 112 113 119 125 131 137 144 152 158 162 167 173 178 184 188 190 191 198 210 218 222 226 223 215 210 213
330 328 329 329 329 330 329 329 330 331 331 333 334 334 333 332 333 336 338 340 340 342 346 350 352 356 358 354 351 351 351 354 5 11 8 10 23 32 32 27 1 237 205 188 189 194 175 148 140 142 143 143 143 139 138 137 135 136 136 131 128 133 138 141 147 155 162 168 174 179 185 192 198 200 198 195 196 204 211 217 220 220 219 217 214
331 328 328 328 328 329 329 329 331 332 332 333 335 336 336 334 331 332 336 340 343 346 351 356 356 356 357 357 355 355 357 359 5 11 15 19 24 30 37 41 42 48 89 112 104 98 104 106 112 123 132 138 141 143 144 144 144 147 149 144 141 144 148 150 157 166 176 187 197 204 206 208 209 208 206 202 200 205 213 220 223 226 231 232 222
333 330 329 329 328 328 329 329 330 331 332 333 335 335 335 334 332 332 334 338 342 346 349 353 355 355 355 356 357 358 1 4 6 7 10 14 18 22 31 38 42 46 54 62 63 57 55 60 63 72 101 125 132 135 137 139 142 145 146 146 146 145 147 153 161 172 186 197 207 217 223 225 225 224 223 221 218 219 222 226 231 234 236 242 243
334 332 332 332 330 329 329 329 331 332 332 334 335 335 335 335 335 336 337 336 336 338 341 345 348 351 352 353 357 0 2 4 6 9 13 15 15 18 26 32 35 40 44 47 49 49 50 50 48 47 59 77 90 109 123 131 140 146 147 151 154 154 162 172 178 189 199 206 214 221 225 230 232 231 231 232 230 228 230 231 234 239 241 240 238
334 333 333 334 333 330 329 330 332 332 333 334 334 335 336 336 337 338 339 338 335 334 337 340 343 347 351 353 357 1 3 5 9 13 18 20 22 27 32 31 30 34 39 39 38 38 38 37 35 32 33 36 38 46 65 86 110 128 154 193 212 235 244 240 232 223 217 215 220 224 225 229 231 229 228 230 228 225 227 228 227 231 235 234 228
334 333 333 333 332 330 330 331 332 333 334 335 336 337 338 338 339 340 340 339 338 337 339 342 344 347 351 354 357 1 4 6 11 18 22 25 30 34 34 31 28 32 35 36 36 34 32 28 25 21 18 17 17 17 13 4 355 345 332 317 303 292 283 273 255 237 225 219 217 219 220 220 221 221 220 218 218 217 215 216 217 217 219 219 214
335 334 333 333 332 330 330 331 332 334 336 337 338 340 339 338 340 342 340 340 341 340 341 345 347 347 347 348 352 359 3 6 11 17 20 22 26 28 29 29 29 29 30 32 35 35 31 27 20 15 13 9 3 0 357 348 339 333 320 308 302 288 255 244 234 219 212 209 204 203 207 207 209 215 216 213 213 213 208 207 210 210 210 213 208
336 335 335 334 333 331 331 331 333 334 336 337 339 340 340 339 341 341 340 340 341 342 343 347 348 347 345 345 348 355 1 5 8 11 12 15 18 21 22 24 24 23 24 28 30 29 27 24 17 11 9 3 356 352 346 337 329 319 299 277 252 216 195 208 228 226 216 210 203 198 202 206 208 214 217 218 219 218 216 214 215 215 217 220 215
335 334 334 335 334 332 332 332 333 334 335 336 337 339 340 340 340 340 339 340 340 342 346 347 346 345 346 347 350 355 358 359 1 5 8 9 12 14 17 19 20 19 19 20 22 25 25 21 14 12 12 10 8 6 355 344 337 329 313 251 204 192 182 182 217 218 199 195 195 196 201 209 212 213 216 219 220 220 221 219 218 219 221 220 215
334 333 333 334 334 333 332 333 334 334 335 335 336 338 339 339 340 340 340 340 340 341 345 346 344 344 346 349 353 358 358 356 356 1 7 10 10 11 13 14 16 17 15 13 14 17 18 16 11 9 10 11 12 11 5 2 3 11 32 99 141 148 142 137 147 165 171 179 190 199 204 210 212 209 206 206 208 213 217 216 214 214 215 213 213
334 333 332 333 334 333 332 332 332 333 334 335 336 338 338 338 339 340 340 340 340 340 343 344 344 345 348 351 354 358 360 358 356 358 4 10 12 12 12 12 12 13 11 9 8 10 11 12 11 9 8 12 15 16 18 20 20 25 38 83 129 140 148 159 164 176 190 198 207 207 202 196 194 189 182 185 195 202 206 209 210 212 214 214 214
333 333 332 332 332 331 331 331 331 332 333 333 335 336 337 337 338 339 340 340 340 340 342 344 344 345 347 351 354 358 359 358 356 357 1 7 11 11 11 11 11 9 8 7 7 6 5 4 4 4 4 8 12 17 21 21 14 7 8 15 130 131 174 205 206 198 201 209 205 193 186 182 182 179 173 180 196 203 205 209 213 212 215 218 216
333 333 332 331 331 330 330 331 332 331 331 331 332 334 336 337 338 339 340 340 340 341 342 344 344 345 347 350 353 357 357 356 356 356 358 4 9 10 10 9 8 7 8 9 8 5 3 1 0 360 357 356 357 1 5 9 8 1 355 344 311 310 305 290 269 227 217 218 199 175 168 164 166 170 172 178 188 192 192 198 206 206 208 213 214
332 333 332 331 329 329 330 331 331 331 331 331 332 334 336 337 338 339 339 339 339 340 342 343 345 345 346 348 352 354 354 354 355 356 356 1 6 7 6 7 5 4 6 9 9 7 4 2 2 5 6 4 1 358 355 359 3 1 359 354 329 309 313 323 314 247 224 229 218 197 182 170 161 162 171 173 170 168 167 170 181 188 191 197 202
331 332 331 329 328 327 327 329 330 330 331 331 331 332 334 336 337 338 338 338 339 339 340 342 345 345 345 347 349 351 352 353 354 355 355 357 0 1 2 3 4 3 3 6 7 8 7 4 359 359 0 1 3 6 5 7 10 5 1 5 2 352 0 7 4 34 44 274 231 205 199 193 181 171 170 167 163 164 165 166 174 181 180 184 192
331 331 330 328 327 326 326 327 328 328 329 330 330 331 332 333 334 336 336 336 337 338 338 340 343 344 344 345 347 348 350 351 351 353 354 355 357 358 357 358 1 2 2 2 3 5 7 7 1 355 352 354 357 360 358 359 6 9 6 4 0 355 0 2 357 355 1 346 304 215 209 207 196 175 159 153 152 156 161 164 172 177 178 180 184
329 330 329 328 327 326 326 327 328 327 327 328 328 329 330 331 331 333 334 334 335 336 337 339 342 343 343 343 345 346 348 349 350 352 354 355 355 355 355 356 358 359 1 2 1 1 4 7 6 2 358 353 351 351 349 347 350 354 355 355 350 339 333 335 332 323 318 321 319 314 297 252 219 187 162 150 143 141 141 145 157 172 179 181 178
327 327 327 325 325 325 325 325 325 324 325 326 325 326 328 330 330 331 332 332 333 334 335 336 339 341 341 341 343 344 345 347 349 351 353 353 353 354 354 355 357 358 359 1 1 360 360 2 4 6 5 0 350 339 330 326 328 332 333 333 333 329 322 318 315 307 299 289 282 288 302 298 276 251 203 164 150 143 140 136 135 152 167 174 175
326 325 324 322 322 323 324 324 323 323 324 324 323 323 326 328 329 330 331 330 330 332 333 334 336 338 338 339 341 342 343 345 346 348 350 351 352 353 353 354 356 357 357 356 357 359 357 356 357 1 3 2 356 346 330 317 311 314 316 317 317 317 314 308 301 293 284 272 263 263 274 277 274 269 248 207 175 163 157 146 134 138 153 164 171
324 323 322 321 321 321 322 323 323 323 323 324 322 322 323 325 326 328 329 328 327 329 330 331 333 334 335 337 339 340 341 342 342 344 347 349 351 352 353 353 354 355 354 352 353 355 353 350 350 351 351 350 351 348 338 321 305 300 304 307 309 310 310 305 295 284 273 261 251 248 253 255 256 258 257 243 212 186 176 168 156 149 151 155 157